www.pogodaiklimat.ru

Погода и климат >> Архив погоды >> Туркменистан >> Гаррыгала


ПОГОДА в Гаррыгале

  • Прогноз погоды в Гаррыгале
  • Монитор погоды в Гаррыгале

АРХИВ ПОГОДЫ в Гаррыгале

Время (UTC), дата Ветер
(напр.,м/с)
 
Видим.   Явления Облачность Т
(С)
Тd
(С)
f
(%)
Тe
(С)
Тes
(С)
Комфортность P
(гПа)
Po
(гПа)
Тmin
(С)
Tmax
(С)
R
(мм)
R24
(мм)
S
(см)
03 9.09 штиль 0 50 км 10/8 600 м
[Cb cap Ac As]
+19.2 +8.6 50 +20 +20 1019.1 982.6 +19.0
06 9.09 З 3 50 км 8/6 600 м
[Cb cap Ac trans]
+23.4 +15.4 61 +28 +30 душно 1018.8 983.0 +19.0
09 9.09 штиль 0 50 км 6/6 1000 м
[Cu med, cong]
+25.4 +12.0 43 +27 +35 жарко 1017.5 981.9
12 9.09 штиль 0 50 км 3/3 1000 м
[Cu med, cong]
+27.3 +10.7 35 +28 +33 жарко 1016.2 980.9
15 9.09 З 2 20 км 3/0
[Ac trans]
+25.0 +6.8 31 +25 +25 комфорт 1016.8 981.1 +27.6
18 9.09 В 3 10 км 6/0
[Ac trans]
+21.8 +5.3 34 +22 +22 комфорт 1017.8 981.7 +27.6
21 9.09 штиль 0 10 км 9/0
[Ac und]
+18.6 +8.4 51 +19 +19 1018.5 982.0
00 10.09 штиль 0 50 км ясно +16.9 +7.1 52 +17 +17 1019.1 982.4
03 10.09 штиль 0 50 км ясно +13.7 +7.1 64 +13 +15 1020.1 983.0 +13.5
06 10.09 В 2 50 км ясно +25.8 +5.9 28 +25 +36 комфорт 1018.4 982.8 +13.5
09 10.09 В 4 50 км ясно +29.2 +4.0 20 +27 +37 жарко 1015.9 980.7
12 10.09 В 6 50 км ясно +29.8 +1.9 17 +27 +29 жарко 1014.8 979.7
15 10.09 В 5 20 км ясно +25.9 -0.7 17 +24 +24 комфорт 1015.4 979.9 +30.0
18 10.09 В 4 10 км ясно +22.6 +0.9 24 +22 +22 комфорт 1017.0 981.0 +30.0
21 10.09 штиль 0 10 км ясно +20.0 +2.7 32 +20 +20 1017.6 981.3
03 11.09 В 3 50 км ясно +18.2 +0.4 30 +18 +19 1019.6 983.0 +17.9
06 11.09 В 3 50 км 4/0
[Ac cast]
+25.6 +2.9 23 +24 +31 комфорт 1019.1 983.4 +17.9
09 11.09 штиль 0 50 км 3/3 1000 м
[Cu med, cong]
+29.4 +5.0 21 +28 +41 жарко 1017.2 982.0
12 11.09 З 2 50 км 3/3 1000 м
[Cu med, cong]
+30.2 +2.1 17 +28 +31 жарко 1015.7 980.6
15 11.09 В 2 20 км 4/0
[Ac lent]
+26.8 +1.1 19 +25 +25 комфорт 1017.9 982.4 +30.4
18 11.09 В 3 10 км ясно +23.9 +0.2 21 +23 +23 комфорт 1018.8 983.0 +30.4
21 11.09 штиль 0 10 км 6/0
[Ac trans]
+20.4 +5.1 37 +21 +21 комфорт 1019.8 983.4
00 12.09 штиль 0 10 км 6/4 600 м
[Cb cap Ac trans]
+16.0 +5.1 48 +16 +16 1020.4 983.5
03 12.09 В 2 50 км 5/3 600 м
[Cb cap Ac trans]
+15.5 +3.2 44 +16 +16 1021.4 984.4 +15.2
06 12.09 штиль 0 50 км 8/3 1000 м
[Cu med, cong Ac cast]
+24.8 +6.2 30 +25 +29 комфорт 1020.0 984.2 +15.2
09 12.09 З 3 50 км 8/4 600 м
[Cb cap Ac trans]
+26.6 +11.3 38 +28 +32 жарко 1018.3 982.8
12 12.09 СЗ 4 50 км 9/6 600 м
[Cb cap Ac trans]
+25.9 +11.5 41 +27 +28 жарко 1017.1 981.6
15 12.09 З 3 20 км 9/6 600 м
[Cb cap Ac trans]
+22.5 +9.2 43 +24 +24 комфорт 1017.8 981.8 +26.8
18 12.09 штиль 0 10 км 8/5 600 м
[Cb cap Ac trans]
+19.8 +9.3 51 +21 +21 комфорт 1020.3 983.9 +26.8
21 12.09 штиль 0 10 км 4/0
[Ac lent]
+18.0 +10.4 61 +18 +18 1020.4 983.7
00 13.09 штиль 0 10 км ясно +15.2 +9.4 68 +15 +15 1020.3 983.4
03 13.09 В 2 50 км сильная метель 8/8 600 м
[]
+16.4 +8.8 61 +17 +17 1020.9 984.1 +15.0
06 13.09 штиль 0 50 км 9/6 600 м
[Cb cap Ac trans]
+21.4 +14.2 64 +24 +27 комфорт 1020.8 984.6 +15.0
09 13.09 З 5 50 км 8/0
[Ac trans]
+22.5 +15.1 63 +26 +30 жарко 1020.0 984.0
12 13.09 З 4 50 км 8/4 600 м
[Cb cap Ac trans]
+23.2 +15.0 60 +27 +28 душно 1018.5 982.7
15 13.09 штиль 0 20 км 9/6 600 м
[Cb cap Ac trans]
+21.6 +14.5 64 +25 +25 комфорт 1019.1 983.1 +23.5
18 13.09 штиль 0 10 км {ливн. осадки} 10/8 600 м
[Cb cap Ac As]
+19.9 +16.6 81 +22 +22 комфорт 1020.4 984.1 +23.5
21 13.09 штиль 0 10 км 10/8 600 м
[Cb cap Ac As]
+19.5 +17.2 87 +22 +22 комфорт 1020.0 983.7
00 14.09 штиль 0 10 км {ливн. осадки} 10/8 600 м
[Cb cap Ac As]
+19.2 +15.9 81 +21 +21 комфорт 1019.9 983.5
03 14.09 штиль 0 50 км в посл. час ливневой дождь 10/8 600 м
[Cb cap Ac As]
+18.2 +18.0 99 1020.9 1
06 14.09 штиль 0 50 км {ливн. осадки} 8/8 600 м
[Cb cap Ac trans]
+20.4 +15.5 73 +23 +26 комфорт 1021.9 985.5 +18.0 1
09 14.09 З 2 50 км 5/0
[Ac cuf]
+25.2 +12.6 45 +27 +36 жарко 1020.2 984.5
12 14.09 СЗ 2 50 км 5/3 600 м
[Cb cap Ac trans]
+25.8 +11.7 41 +27 +30 жарко 1019.0 983.3
15 14.09 З 1 20 км 5/3 600 м
[Cb cap Ac trans]
+24.2 +11.4 45 +26 +26 жарко 1019.2 983.4 +26.0
18 14.09 штиль 0 10 км 3/0
[Ac trans]
+20.8 +13.5 63 +23 +23 комфорт 1020.5 984.3 +26.0
21 14.09 штиль 0 10 км ясно +16.5 +10.9 69 +16 +16 1020.9 984.1
03 15.09 штиль 0 50 км ясно +14.5 +10.7 78 +14 +15 1021.4 984.4 +13.5

 

Местоположение метеостанции Гаррыгала (Балканский велаят, Туркменистан): широта 38.43 долгота 56.30 высота над уровнем моря 312 м.

В архиве по умолчанию представлена погода в Гаррыгале за последнюю неделю. Архивные данные за месяц целиком и за предыдущие месяцы, начиная с января 2011 года, Вы можете получить, выбрав интересующий диапазон дат из раскрывающегося списка и нажав кнопку "Ввод!".


*Определитесь, кто Вы:
робот инопланетянин человек

Внимание! Время в таблицах - всемирное. Для получения местного времени необходимо прибавить поправку, которая равна 5 ч.

Смотрите также архив погоды в соседних городах и на ближайших метеорологических станциях:

Погода в Сердаре (Балканский велаят, Туркменистан) (61 км)
Погода в Мараве Таппе (Иран) (66 км)
Погода в Unknown (Туркменистан) (78 км)
Погода в Бахарлы (Ахалский велаят, Туркменистан) (98 км)
Погода в Газаджаке (Лебапский велаят, Туркменистан) (114 км)
Погода в Боджнурде (Иран) (140 км)
Погода в Гызылетреке (Балканский велаят, Туркменистан) (161 км)
Погода в Ашхабаде (город Ашхабад, Туркменистан) (186 км)
Погода в Небит-Даге (Балканский велаят, Туркменистан) (208 км)
Погода в Ербенте (Ахалский велаят, Туркменистан) (222 км)

Пояснения к столбцам:

Ветер - указаны скорость ветра в м/с - средняя за 10 мин, порывы в срок и между сроками (в фигурных скобках) и направление, откуда дует ветер: С - северный, СВ - северо-восточный, В - восточный, ЮВ - юго-восточный, Ю - южный, ЮЗ - юго-западный, З - западный, СЗ - северо-западный.
Видимость - горизонтальная дальность видимости в метрах или километрах. При видимости от 1 до 10 км при отсутствии осадков обычно наблюдается дымка, при ухудшении видимости до 1 км и менее - туман. В сухую погоду видимость может ухудшаться дымом, пылью или мглою.
Явления - указаны атмосферные явления, наблюдавшиеся в срок или в последний час перед сроком; фигурными скобками обозначены явления, наблюдавшиеся между сроками (за 1-3 часа до срока); квадратными скобками обозначены град или гололедные отложения с указанием их диаметра в мм.
Облачность - указаны через наклонную черту общая и нижняя облачность в баллах и высота нижней границы облаков в метрах; квадратными скобками обозначены формы облаков: Ci - перистые, Cs - перисто-слоистые, Cc - перисто-кучевые, Ac - высококучевые, As - высокослоистые, Sc - слоисто-кучевые, Ns - слоисто-дождевые, Cu - кучевые, Cb - кучево-дождевые. Подробнее классификацию облаков см. в Атласе облаков (PDF).
T - Температура воздуха - температура, измеренная на высоте 2 м над землей.
Td - Температура точки росы - температура, при понижении до которой содержащийся в воздухе водяной пар достигнет насыщения.
f - Относительная влажность воздуха - влажноcть воздуха, измеренная на высоте 2 м над землей.
Te - Эффективная температура - температура, которую ощущает одетый по сезону человек в тени. Характеристика душности погоды. При расчете учитывается влияние влажности воздуха и скорости ветра на теплоощущения человека.
Tes - Эффективная температура на солнце - температура, которую ощущает человек, с поправкой на солнечный нагрев. Характеристика знойности погоды. Зависит от высоты солнца над горизонтом, облачности и скорости ветра. Ночью, в пасмурную погоду, а также при ветре 12 м/с и более поправка равна нулю.
P - Атмосферное давление - приведенное к уровню моря атмосферное давление.
Po - Атмосферное давление - измеренное на уровне метеостанции атмосферное давление.
Tmin - Минимальная температура - минимум температуры воздуха на высоте 2 м над землей.
Tmax - Максимальная температура - максимум температуры воздуха на высоте 2 м над землей.
R - Количество осадков - Количество выпавших осадков за период времени, мм. При наведении курсора мыши на число - период времени, за который выпало указанное количество осадков.
R24 - Количество осадков - Количество выпавших осадков за 24 часа, мм.
S - Снежный покров - Высота снежного покрова, см. При наведении курсора мыши на число - состояние снежного покрова и степень покрытия местности в баллах.